QPF
0.00 0.00 0.00 0.00 0.01 0.01 0.01 0.01 0.01 0.01 0.01 0.01 0.01 0.01 0.02 0.02 0.03 0.05 0.05 0.03 0.03 0.06 0.08 0.10 0.11 0.14 0.14 0.14 0.14 0.14 0.13 0.10 0.08 0.07 0.06 0.04 0.06 0.05 0.05 0.03 0.02 0.01 0.01
0.00 0.00 0.00 0.00 0.00 0.00 0.00 0.00 0.01 0.01 0.01 0.02 0.02 0.02 0.02 0.02 0.03 0.05 0.07 0.06 0.03 0.05 0.09 0.10 0.13 0.16 0.16 0.15 0.13 0.14 0.12 0.09 0.08 0.07 0.07 0.05 0.05 0.05 0.06 0.04 0.02 0.02 0.01
0.00 0.00 0.00 0.00 0.00 0.00 0.01 0.01 0.01 0.02 0.02 0.02 0.03 0.03 0.02 0.03 0.02 0.03 0.05 0.06 0.05 0.05 0.07 0.09 0.11 0.13 0.14 0.13 0.13 0.16 0.14 0.11 0.09 0.08 0.07 0.06 0.05 0.04 0.05 0.05 0.03 0.02 0.02
0.00 0.00 0.00 0.00 0.00 0.01 0.01 0.01 0.01 0.03 0.04 0.04 0.04 0.04 0.03 0.04 0.03 0.02 0.03 0.05 0.06 0.06 0.06 0.07 0.07 0.10 0.11 0.13 0.12 0.14 0.15 0.12 0.08 0.07 0.06 0.06 0.06 0.05 0.05 0.05 0.04 0.04 0.03
0.00 0.01 0.02 0.01 0.01 0.01 0.01 0.01 0.01 0.03 0.05 0.06 0.05 0.04 0.04 0.04 0.05 0.04 0.05 0.06 0.06 0.07 0.06 0.07 0.08 0.10 0.10 0.12 0.13 0.13 0.14 0.13 0.09 0.06 0.06 0.06 0.06 0.05 0.06 0.07 0.06 0.06 0.04
0.00 0.01 0.01 0.01 0.01 0.02 0.02 0.02 0.02 0.02 0.04 0.06 0.05 0.04 0.04 0.04 0.05 0.05 0.06 0.07 0.07 0.08 0.07 0.08 0.11 0.09 0.09 0.08 0.10 0.12 0.14 0.13 0.10 0.06 0.06 0.06 0.06 0.06 0.06 0.06 0.06 0.06 0.06
0.00 0.00 0.01 0.01 0.02 0.02 0.02 0.02 0.02 0.03 0.03 0.04 0.08 0.09 0.06 0.05 0.05 0.06 0.07 0.09 0.08 0.09 0.09 0.11 0.11 0.11 0.10 0.07 0.08 0.09 0.12 0.12 0.11 0.09 0.07 0.07 0.07 0.07 0.07 0.06 0.05 0.05 0.05
0.00 0.00 0.02 0.02 0.01 0.02 0.02 0.02 0.03 0.04 0.04 0.04 0.07 0.12 0.10 0.07 0.05 0.04 0.07 0.08 0.08 0.10 0.11 0.11 0.09 0.11 0.11 0.10 0.09 0.06 0.08 0.09 0.11 0.12 0.10 0.08 0.06 0.06 0.07 0.05 0.05 0.05 0.06
0.00 0.01 0.01 0.01 0.01 0.01 0.01 0.02 0.02 0.04 0.05 0.05 0.06 0.09 0.11 0.09 0.06 0.05 0.06 0.06 0.09 0.12 0.11 0.10 0.08 0.11 0.13 0.12 0.10 0.06 0.04 0.05 0.08 0.11 0.13 0.11 0.09 0.07 0.05 0.06 0.04 0.04 0.06
0.00 0.00 0.00 0.00 0.01 0.00 0.01 0.01 0.02 0.03 0.05 0.06 0.05 0.05 0.06 0.07 0.08 0.09 0.07 0.06 0.07 0.11 0.10 0.08 0.06 0.07 0.10 0.12 0.11 0.06 0.03 0.04 0.07 0.11 0.15 0.13 0.11 0.10 0.07 0.06 0.06 0.04 0.05
0.00 0.00 0.00 0.00 0.00 0.00 0.01 0.03 0.02 0.03 0.04 0.05 0.05 0.04 0.04 0.06 0.07 0.09 0.09 0.07 0.08 0.10 0.08 0.07 0.07 0.07 0.08 0.07 0.10 0.06 0.03 0.03 0.04 0.10 0.14 0.14 0.12 0.11 0.10 0.09 0.07 0.06 0.05
0.00 0.00 0.00 0.00 0.01 0.01 0.01 0.02 0.02 0.02 0.03 0.04 0.04 0.05 0.06 0.08 0.08 0.08 0.09 0.09 0.09 0.08 0.06 0.05 0.05 0.07 0.07 0.07 0.05 0.04 0.02 0.03 0.02 0.03 0.07 0.12 0.12 0.11 0.10 0.10 0.09 0.08 0.07
0.00 0.01 0.00 0.00 0.00 0.01 0.01 0.01 0.01 0.01 0.02 0.02 0.03 0.03 0.04 0.06 0.07 0.08 0.09 0.09 0.08 0.07 0.05 0.04 0.04 0.05 0.05 0.06 0.05 0.04 0.02 0.03 0.03 0.02 0.02 0.05 0.07 0.09 0.09 0.10 0.11 0.11 0.10
0.00 0.00 0.01 0.00 0.00 0.00 0.00 0.01 0.01 0.01 0.01 0.01 0.02 0.02 0.03 0.03 0.04 0.06 0.08 0.09 0.09 0.07 0.05 0.04 0.03 0.04 0.03 0.03 0.04 0.02 0.02 0.02 0.02 0.02 0.01 0.02 0.03 0.05 0.07 0.08 0.09 0.10 0.10
0.00 0.00 0.01 0.00 0.00 0.00 0.00 0.00 0.01 0.01 0.01 0.02 0.02 0.02 0.03 0.02 0.02 0.04 0.06 0.09 0.10 0.09 0.06 0.04 0.03 0.03 0.02 0.02 0.02 0.01 0.02 0.02 0.03 0.03 0.02 0.02 0.02 0.03 0.04 0.06 0.07 0.06 0.06
0.00 0.00 0.00 0.00 0.00 0.00 0.00 0.00 0.01 0.01 0.01 0.02 0.02 0.03 0.03 0.02 0.02 0.03 0.05 0.06 0.07 0.08 0.06 0.04 0.03 0.02 0.02 0.01 0.02 0.02 0.03 0.03 0.02 0.03 0.03 0.02 0.02 0.02 0.03 0.03 0.03 0.03 0.03
0.00 0.00 0.00 0.00 0.00 0.00 0.00 0.00 0.00 0.01 0.01 0.01 0.01 0.02 0.03 0.02 0.02 0.03 0.04 0.05 0.05 0.05 0.05 0.03 0.02 0.02 0.02 0.02 0.03 0.03 0.03 0.04 0.03 0.02 0.02 0.02 0.02 0.03 0.04 0.04 0.03 0.02 0.02
0.00 0.00 0.00 0.00 0.00 0.00 0.00 0.00 0.00 0.01 0.01 0.02 0.02 0.03 0.04 0.02 0.03 0.03 0.03 0.03 0.03 0.03 0.04 0.04 0.02 0.02 0.02 0.03 0.02 0.02 0.03 0.04 0.04 0.03 0.02 0.01 0.02 0.03 0.04 0.04 0.04 0.03 0.02
0.00 0.00 0.00 0.00 0.00 0.00 0.00 0.00 0.00 0.00 0.01 0.01 0.02 0.03 0.03 0.03 0.02 0.01 0.02 0.02 0.02 0.02 0.03 0.03 0.03 0.03 0.02 0.03 0.02 0.01 0.02 0.04 0.05 0.04 0.02 0.02 0.02 0.02 0.02 0.03 0.03 0.03 0.02
0.00 0.00 0.00 0.00 0.00 0.00 0.00 0.00 0.00 0.00 0.00 0.00 0.00 0.01 0.01 0.02 0.02 0.02 0.01 0.02 0.02 0.03 0.03 0.03 0.03 0.03 0.03 0.02 0.02 0.02 0.02 0.02 0.03 0.03 0.02 0.02 0.02 0.02 0.02 0.02 0.03 0.03 0.03
0.00 0.00 0.00 0.00 0.00 0.00 0.00 0.00 0.00 0.00 0.00 0.00 0.00 0.00 0.00 0.01 0.01 0.01 0.01 0.02 0.03 0.03 0.04 0.04 0.03 0.02 0.02 0.02 0.02 0.02 0.02 0.02 0.02 0.02 0.02 0.01 0.01 0.01 0.01 0.01 0.02 0.02 0.02
0.00 0.00 0.00 0.00 0.00 0.00 0.00 0.00 0.00 0.00 0.00 0.00 0.00 0.00 0.00 0.01 0.01 0.02 0.01 0.01 0.01 0.01 0.02 0.04 0.06 0.04 0.02 0.02 0.02 0.02 0.02 0.02 0.03 0.03 0.03 0.03 0.02 0.01 0.01 0.01 0.01 0.01 0.02
0.00 0.00 0.00 0.00 0.00 0.00 0.00 0.00 0.00 0.00 0.00 0.00 0.00 0.00 0.00 0.00 0.01 0.01 0.01 0.00 0.00 0.01 0.02 0.02 0.05 0.04 0.02 0.02 0.02 0.02 0.01 0.02 0.02 0.03 0.03 0.04 0.04 0.03 0.02 0.02 0.02 0.01 0.01
0.00 0.00 0.00 0.00 0.00 0.00 0.00 0.00 0.00 0.00 0.00 0.00 0.00 0.00 0.00 0.00 0.00 0.00 0.00 0.00 0.00 0.00 0.01 0.00 0.01 0.02 0.02 0.02 0.03 0.03 0.03 0.02 0.01 0.02 0.03 0.04 0.05 0.04 0.03 0.02 0.01 0.01 0.01
0.00 0.01 0.01 0.00 0.00 0.00 0.00 0.00 0.00 0.00 0.00 0.00 0.00 0.00 0.00 0.00 0.00 0.00 0.00 0.00 0.00 0.00 0.00 0.00 0.00 0.00 0.01 0.02 0.02 0.03 0.03 0.03 0.03 0.02 0.02 0.02 0.02 0.03 0.02 0.02 0.01 0.01 0.01
0.01 0.01 0.01 0.01 0.00 0.00 0.00 0.00 0.00 0.00 0.00 0.00 0.00 0.00 0.00 0.00 0.00 0.00 0.00 0.00 0.00 0.00 0.00 0.00 0.00 0.00 0.00 0.00 0.00 0.01 0.02 0.03 0.02 0.02 0.01 0.01 0.02 0.02 0.02 0.02 0.01 0.01 0.00
MSLP
1014.01 1013.84 1013.68 1013.55 1013.44 1013.35 1013.28 1013.18 1013.05 1012.86 1012.61 1012.32 1012.03 1011.78 1011.62 1011.57 1011.65 1011.85 1012.13 1012.44 1012.73 1012.98 1013.14 1013.23 1013.26 1013.26 1013.27 1013.29 1013.35 1013.45 1013.57 1013.70 1013.83 1013.95 1014.07 1014.20 1014.35 1014.53 1014.73 1014.95 1015.16 1015.35 1015.51
1014.17 1013.97 1013.78 1013.63 1013.50 1013.40 1013.30 1013.18 1013.03 1012.82 1012.56 1012.28 1012.01 1011.80 1011.66 1011.64 1011.74 1011.93 1012.19 1012.47 1012.72 1012.92 1013.05 1013.12 1013.15 1013.17 1013.21 1013.27 1013.36 1013.48 1013.61 1013.74 1013.86 1013.97 1014.08 1014.20 1014.36 1014.55 1014.78 1015.03 1015.29 1015.53 1015.74
1014.39 1014.17 1013.96 1013.78 1013.63 1013.50 1013.37 1013.22 1013.04 1012.82 1012.56 1012.30 1012.06 1011.88 1011.79 1011.80 1011.90 1012.09 1012.30 1012.52 1012.71 1012.84 1012.92 1012.95 1012.98 1013.01 1013.07 1013.16 1013.30 1013.45 1013.60 1013.74 1013.86 1013.97 1014.07 1014.19 1014.35 1014.55 1014.80 1015.09 1015.38 1015.67 1015.92
1014.65 1014.42 1014.19 1013.99 1013.82 1013.66 1013.49 1013.31 1013.10 1012.86 1012.61 1012.36 1012.16 1012.03 1011.98 1012.01 1012.13 1012.29 1012.46 1012.61 1012.72 1012.77 1012.78 1012.77 1012.76 1012.79 1012.86 1012.99 1013.16 1013.34 1013.53 1013.69 1013.82 1013.93 1014.04 1014.17 1014.33 1014.54 1014.80 1015.11 1015.43 1015.74 1016.02
1014.91 1014.68 1014.45 1014.24 1014.05 1013.86 1013.66 1013.43 1013.19 1012.94 1012.68 1012.46 1012.30 1012.21 1012.21 1012.28 1012.40 1012.54 1012.67 1012.75 1012.77 1012.74 1012.68 1012.60 1012.56 1012.56 1012.64 1012.78 1012.98 1013.19 1013.41 1013.60 1013.76 1013.89 1014.01 1014.14 1014.31 1014.53 1014.80 1015.10 1015.43 1015.76 1016.07
1015.13 1014.92 1014.72 1014.52 1014.31 1014.10 1013.86 1013.61 1013.33 1013.06 1012.81 1012.61 1012.48 1012.44 1012.48 1012.58 1012.72 1012.84 1012.93 1012.96 1012.91 1012.80 1012.65 1012.51 1012.42 1012.39 1012.46 1012.60 1012.80 1013.04 1013.28 1013.50 1013.69 1013.84 1013.99 1014.13 1014.31 1014.53 1014.79 1015.09 1015.41 1015.74 1016.04
1015.31 1015.14 1014.97 1014.79 1014.60 1014.37 1014.12 1013.84 1013.54 1013.25 1013.00 1012.81 1012.71 1012.71 1012.79 1012.92 1013.07 1013.20 1013.26 1013.24 1013.13 1012.95 1012.74 1012.54 1012.39 1012.33 1012.36 1012.50 1012.70 1012.94 1013.20 1013.44 1013.65 1013.83 1014.00 1014.16 1014.34 1014.56 1014.80 1015.08 1015.37 1015.67 1015.96
1015.43 1015.32 1015.20 1015.06 1014.88 1014.67 1014.41 1014.12 1013.80 1013.50 1013.25 1013.08 1013.01 1013.03 1013.14 1013.29 1013.46 1013.58 1013.63 1013.58 1013.43 1013.21 1012.95 1012.70 1012.51 1012.41 1012.41 1012.52 1012.70 1012.94 1013.20 1013.45 1013.68 1013.89 1014.07 1014.24 1014.42 1014.61 1014.83 1015.07 1015.32 1015.58 1015.83
1015.51 1015.46 1015.39 1015.29 1015.16 1014.97 1014.72 1014.43 1014.12 1013.82 1013.58 1013.42 1013.36 1013.40 1013.52 1013.69 1013.86 1013.99 1014.03 1013.96 1013.79 1013.55 1013.26 1012.99 1012.77 1012.63 1012.61 1012.68 1012.84 1013.07 1013.31 1013.57 1013.80 1014.01 1014.19 1014.37 1014.53 1014.71 1014.89 1015.08 1015.27 1015.47 1015.68
1015.55 1015.54 1015.52 1015.48 1015.39 1015.23 1015.02 1014.75 1014.46 1014.18 1013.95 1013.80 1013.74 1013.79 1013.92 1014.09 1014.26 1014.37 1014.41 1014.34 1014.17 1013.93 1013.64 1013.36 1013.13 1012.98 1012.93 1012.98 1013.12 1013.31 1013.54 1013.77 1014.00 1014.20 1014.38 1014.54 1014.69 1014.83 1014.96 1015.10 1015.23 1015.37 1015.51
1015.55 1015.57 1015.59 1015.59 1015.54 1015.44 1015.26 1015.04 1014.78 1014.53 1014.32 1014.18 1014.13 1014.17 1014.29 1014.44 1014.60 1014.70 1014.73 1014.67 1014.51 1014.29 1014.02 1013.76 1013.55 1013.40 1013.34 1013.38 1013.49 1013.65 1013.85 1014.06 1014.26 1014.45 1014.61 1014.74 1014.86 1014.97 1015.05 1015.13 1015.20 1015.27 1015.35
1015.49 1015.53 1015.57 1015.60 1015.60 1015.54 1015.42 1015.24 1015.03 1014.82 1014.64 1014.52 1014.47 1014.50 1014.60 1014.73 1014.86 1014.94 1014.97 1014.91 1014.78 1014.59 1014.36 1014.14 1013.96 1013.84 1013.79 1013.81 1013.90 1014.04 1014.21 1014.39 1014.56 1014.71 1014.85 1014.96 1015.05 1015.11 1015.15 1015.18 1015.19 1015.21 1015.23
1015.36 1015.40 1015.46 1015.52 1015.54 1015.53 1015.46 1015.34 1015.19 1015.03 1014.88 1014.78 1014.74 1014.76 1014.82 1014.92 1015.02 1015.08 1015.10 1015.05 1014.95 1014.80 1014.63 1014.46 1014.33 1014.24 1014.21 1014.24 1014.32 1014.43 1014.57 1014.71 1014.85 1014.97 1015.08 1015.16 1015.22 1015.25 1015.26 1015.25 1015.22 1015.18 1015.16
1015.16 1015.20 1015.27 1015.33 1015.39 1015.41 1015.40 1015.34 1015.24 1015.13 1015.03 1014.95 1014.92 1014.92 1014.96 1015.03 1015.09 1015.13 1015.14 1015.11 1015.03 1014.93 1014.82 1014.71 1014.63 1014.58 1014.58 1014.62 1014.69 1014.79 1014.89 1015.00 1015.10 1015.19 1015.26 1015.32 1015.35 1015.37 1015.35 1015.32 1015.26 1015.20 1015.15
1014.91 1014.94 1015.01 1015.09 1015.17 1015.23 1015.26 1015.25 1015.21 1015.16 1015.09 1015.04 1015.01 1015.01 1015.02 1015.06 1015.09 1015.12 1015.12 1015.10 1015.05 1015.00 1014.94 1014.88 1014.85 1014.85 1014.88 1014.92 1014.99 1015.06 1015.14 1015.21 1015.28 1015.34 1015.38 1015.42 1015.44 1015.44 1015.42 1015.38 1015.32 1015.25 1015.18
1014.61 1014.66 1014.73 1014.82 1014.92 1015.02 1015.08 1015.12 1015.14 1015.12 1015.10 1015.07 1015.04 1015.03 1015.04 1015.05 1015.07 1015.08 1015.08 1015.07 1015.05 1015.03 1015.02 1015.01 1015.02 1015.05 1015.09 1015.14 1015.20 1015.25 1015.30 1015.34 1015.37 1015.40 1015.42 1015.44 1015.45 1015.45 1015.44 1015.41 1015.37 1015.31 1015.24
1014.32 1014.38 1014.47 1014.58 1014.70 1014.82 1014.92 1015.00 1015.05 1015.07 1015.07 1015.06 1015.04 1015.04 1015.03 1015.03 1015.04 1015.05 1015.05 1015.06 1015.06 1015.07 1015.08 1015.11 1015.14 1015.19 1015.23 1015.28 1015.32 1015.35 1015.36 1015.37 1015.37 1015.37 1015.37 1015.37 1015.38 1015.39 1015.39 1015.39 1015.37 1015.33 1015.28
1014.03 1014.12 1014.24 1014.37 1014.52 1014.66 1014.79 1014.89 1014.96 1015.01 1015.03 1015.03 1015.02 1015.02 1015.02 1015.02 1015.02 1015.04 1015.05 1015.07 1015.09 1015.11 1015.15 1015.19 1015.23 1015.27 1015.31 1015.34 1015.36 1015.36 1015.34 1015.32 1015.29 1015.26 1015.24 1015.23 1015.24 1015.26 1015.28 1015.30 1015.31 1015.31 1015.29
1013.76 1013.88 1014.03 1014.19 1014.36 1014.52 1014.67 1014.79 1014.87 1014.93 1014.96 1014.97 1014.97 1014.97 1014.98 1014.99 1015.01 1015.03 1015.06 1015.09 1015.13 1015.16 1015.20 1015.24 1015.28 1015.31 1015.34 1015.34 1015.33 1015.30 1015.26 1015.21 1015.15 1015.10 1015.06 1015.04 1015.04 1015.06 1015.10 1015.15 1015.19 1015.22 1015.23
1013.49 1013.63 1013.80 1013.99 1014.17 1014.35 1014.51 1014.63 1014.72 1014.78 1014.82 1014.83 1014.84 1014.86 1014.88 1014.91 1014.94 1014.99 1015.04 1015.09 1015.14 1015.18 1015.22 1015.25 1015.28 1015.30 1015.30 1015.29 1015.26 1015.21 1015.14 1015.07 1014.99 1014.92 1014.86 1014.83 1014.82 1014.84 1014.89 1014.94 1015.01 1015.06 1015.09
1013.18 1013.33 1013.51 1013.71 1013.91 1014.09 1014.25 1014.37 1014.46 1014.52 1014.55 1014.58 1014.60 1014.63 1014.67 1014.72 1014.79 1014.87 1014.94 1015.02 1015.08 1015.13 1015.17 1015.20 1015.22 1015.22 1015.21 1015.18 1015.14 1015.08 1015.01 1014.93 1014.84 1014.76 1014.69 1014.64 1014.62 1014.63 1014.67 1014.73 1014.79 1014.86 1014.91
1012.81 1012.95 1013.12 1013.31 1013.51 1013.69 1013.84 1013.95 1014.04 1014.09 1014.12 1014.15 1014.19 1014.24 1014.31 1014.40 1014.51 1014.62 1014.73 1014.83 1014.91 1014.98 1015.02 1015.05 1015.06 1015.06 1015.05 1015.03 1014.99 1014.95 1014.88 1014.81 1014.73 1014.65 1014.57 1014.51 1014.47 1014.46 1014.49 1014.53 1014.59 1014.65 1014.70
1012.37 1012.48 1012.62 1012.79 1012.96 1013.12 1013.25 1013.36 1013.43 1013.48 1013.51 1013.55 1013.61 1013.69 1013.79 1013.92 1014.07 1014.22 1014.37 1014.50 1014.60 1014.69 1014.75 1014.78 1014.81 1014.82 1014.83 1014.83 1014.82 1014.80 1014.77 1014.72 1014.66 1014.59 1014.52 1014.45 1014.40 1014.37 1014.37 1014.39 1014.42 1014.47 1014.51
1011.91 1011.96 1012.05 1012.17 1012.31 1012.43 1012.53 1012.61 1012.67 1012.71 1012.74 1012.79 1012.87 1012.97 1013.11 1013.28 1013.47 1013.66 1013.84 1014.00 1014.14 1014.25 1014.33 1014.40 1014.44 1014.49 1014.53 1014.57 1014.61 1014.64 1014.66 1014.66 1014.63 1014.59 1014.53 1014.46 1014.40 1014.35 1014.32 1014.31 1014.32 1014.33 1014.35
1011.49 1011.46 1011.49 1011.55 1011.63 1011.70 1011.76 1011.80 1011.83 1011.85 1011.88 1011.93 1012.02 1012.15 1012.31 1012.51 1012.73 1012.96 1013.17 1013.37 1013.53 1013.67 1013.78 1013.88 1013.96 1014.05 1014.14 1014.24 1014.34 1014.43 1014.52 1014.57 1014.60 1014.60 1014.57 1014.51 1014.45 1014.38 1014.33 1014.29 1014.26 1014.25 1014.23
1011.18 1011.08 1011.03 1011.02 1011.02 1011.03 1011.04 1011.03 1011.02 1011.01 1011.02 1011.06 1011.14 1011.27 1011.45 1011.66 1011.90 1012.15 1012.38 1012.60 1012.80 1012.96 1013.11 1013.24 1013.37 1013.50 1013.65 1013.81 1013.98 1014.15 1014.31 1014.43 1014.52 1014.57 1014.57 1014.54 1014.49 1014.42 1014.35 1014.29 1014.24 1014.20 1014.16
Thickness
5720 5718 5717 5713 5713 5712 5712 5710 5711 5711 5710 5713 5714 5716 5718 5720 5722 5725 5726 5726 5728 5731 5734 5737 5739 5741 5742 5743 5744 5745 5746 5748 5749 5749 5750 5751 5752 5753 5753 5753 5754 5754 5754
5716 5714 5714 5711 5710 5708 5707 5706 5707 5706 5706 5707 5708 5710 5712 5716 5719 5720 5723 5725 5726 5729 5732 5734 5736 5739 5740 5741 5742 5744 5745 5746 5747 5748 5749 5750 5751 5752 5752 5752 5752 5752 5753
5712 5711 5709 5708 5706 5704 5702 5702 5703 5701 5702 5702 5703 5705 5708 5711 5714 5718 5721 5723 5726 5727 5729 5732 5734 5736 5737 5738 5740 5742 5744 5745 5746 5747 5748 5749 5750 5750 5751 5751 5751 5751 5751
5709 5706 5704 5703 5701 5700 5698 5697 5696 5696 5697 5697 5698 5701 5704 5706 5710 5715 5718 5721 5724 5726 5728 5729 5731 5733 5734 5736 5738 5740 5742 5743 5744 5746 5747 5748 5749 5749 5750 5750 5750 5750 5750
5705 5704 5700 5698 5698 5696 5694 5693 5692 5691 5691 5691 5694 5696 5699 5702 5706 5711 5716 5719 5721 5723 5727 5727 5729 5730 5732 5734 5737 5738 5740 5741 5742 5744 5745 5747 5748 5748 5749 5749 5749 5749 5749
5701 5700 5698 5696 5694 5692 5689 5688 5686 5686 5686 5687 5691 5693 5695 5698 5702 5706 5710 5715 5718 5721 5724 5726 5728 5729 5730 5733 5734 5736 5738 5739 5741 5742 5744 5745 5746 5747 5747 5747 5747 5747 5747
5699 5697 5695 5693 5689 5688 5685 5685 5683 5684 5684 5685 5686 5687 5691 5695 5699 5701 5706 5710 5715 5717 5720 5723 5726 5728 5730 5731 5732 5734 5735 5737 5739 5741 5742 5743 5744 5745 5746 5746 5746 5746 5746
5697 5695 5692 5690 5687 5684 5683 5681 5679 5679 5681 5683 5682 5681 5682 5686 5691 5697 5701 5704 5710 5714 5717 5721 5724 5726 5729 5731 5731 5732 5734 5735 5737 5739 5740 5742 5743 5743 5744 5744 5744 5744 5744
5695 5692 5690 5688 5685 5684 5681 5679 5678 5676 5676 5680 5681 5679 5678 5679 5685 5691 5696 5701 5705 5709 5713 5717 5721 5724 5726 5728 5729 5730 5731 5733 5735 5737 5738 5740 5741 5741 5742 5742 5742 5743 5743
5695 5691 5688 5686 5685 5683 5680 5679 5678 5676 5675 5676 5678 5679 5681 5681 5680 5683 5689 5696 5701 5704 5709 5713 5717 5720 5723 5725 5725 5727 5729 5731 5733 5734 5736 5738 5739 5739 5740 5740 5741 5741 5741
5695 5692 5688 5686 5684 5682 5679 5677 5675 5675 5675 5674 5675 5677 5678 5680 5684 5682 5683 5689 5695 5700 5705 5709 5713 5716 5719 5721 5722 5724 5726 5727 5729 5732 5734 5736 5736 5737 5737 5738 5738 5739 5739
5697 5693 5689 5686 5684 5682 5679 5677 5676 5675 5675 5674 5675 5676 5676 5677 5680 5682 5683 5685 5689 5694 5699 5704 5708 5711 5714 5717 5718 5720 5722 5724 5726 5728 5731 5732 5733 5734 5734 5735 5736 5736 5737
5698 5695 5691 5688 5685 5682 5679 5678 5677 5676 5676 5674 5675 5676 5677 5678 5680 5682 5683 5684 5685 5690 5694 5699 5703 5706 5710 5712 5714 5715 5718 5720 5723 5725 5727 5728 5730 5730 5731 5732 5733 5734 5734
5700 5696 5692 5689 5686 5683 5681 5679 5678 5678 5677 5676 5676 5675 5676 5678 5680 5682 5683 5683 5683 5686 5691 5695 5699 5703 5706 5708 5709 5712 5715 5717 5719 5721 5723 5725 5726 5727 5728 5728 5729 5730 5731
5700 5697 5693 5690 5687 5684 5682 5680 5679 5678 5677 5677 5677 5676 5677 5678 5680 5681 5683 5684 5683 5683 5686 5691 5695 5699 5702 5704 5706 5710 5712 5713 5715 5717 5719 5720 5722 5723 5724 5725 5725 5726 5727
5700 5697 5695 5693 5689 5686 5684 5681 5680 5677 5678 5676 5675 5676 5676 5679 5679 5680 5681 5683 5684 5684 5685 5690 5692 5695 5698 5701 5702 5706 5708 5709 5711 5713 5714 5716 5717 5719 5720 5720 5721 5721 5722
5701 5698 5696 5693 5691 5689 5686 5683 5681 5679 5678 5678 5678 5677 5677 5677 5678 5679 5680 5681 5682 5684 5683 5686 5689 5692 5694 5697 5699 5701 5704 5707 5708 5708 5709 5711 5712 5713 5714 5715 5716 5716 5717
5702 5700 5697 5694 5692 5689 5687 5685 5681 5680 5679 5678 5678 5677 5677 5677 5677 5679 5679 5680 5681 5683 5683 5682 5685 5688 5690 5693 5695 5697 5700 5703 5704 5703 5704 5705 5706 5708 5708 5709 5710 5710 5711
5702 5700 5698 5694 5692 5690 5688 5686 5684 5682 5681 5680 5679 5677 5677 5677 5676 5678 5677 5679 5680 5681 5682 5682 5683 5684 5686 5688 5689 5691 5695 5696 5699 5698 5698 5699 5700 5701 5703 5703 5704 5705 5705
5701 5699 5698 5695 5693 5691 5689 5687 5686 5683 5682 5681 5680 5678 5678 5677 5677 5677 5677 5677 5678 5678 5679 5679 5680 5680 5681 5683 5685 5686 5688 5690 5692 5694 5694 5694 5695 5695 5696 5697 5698 5699 5700
5700 5698 5696 5695 5694 5691 5689 5688 5686 5683 5682 5681 5680 5679 5678 5676 5674 5674 5675 5676 5675 5676 5676 5676 5677 5677 5678 5678 5680 5682 5682 5684 5686 5688 5689 5691 5692 5693 5693 5692 5692 5693 5693
5698 5697 5695 5693 5691 5690 5687 5682 5681 5683 5682 5681 5680 5679 5678 5675 5672 5670 5669 5670 5671 5673 5675 5674 5674 5674 5676 5677 5677 5677 5678 5679 5680 5682 5683 5685 5687 5687 5688 5689 5685 5685 5686
5695 5694 5692 5691 5689 5689 5684 5680 5677 5678 5680 5681 5680 5679 5678 5676 5672 5673 5669 5666 5667 5667 5668 5672 5673 5673 5673 5674 5673 5673 5674 5675 5676 5678 5678 5678 5681 5680 5681 5679 5678 5678 5678
5692 5690 5690 5689 5687 5687 5683 5679 5676 5675 5678 5678 5678 5678 5677 5676 5673 5672 5671 5669 5669 5668 5667 5667 5670 5671 5671 5670 5670 5671 5671 5670 5670 5670 5671 5672 5674 5674 5674 5672 5669 5670 5670
5686 5687 5686 5685 5684 5685 5681 5677 5673 5675 5676 5677 5677 5677 5676 5675 5671 5667 5667 5667 5666 5666 5663 5662 5662 5663 5662 5662 5663 5664 5664 5663 5664 5666 5666 5666 5667 5668 5668 5667 5664 5663 5663
5678 5680 5681 5681 5682 5682 5680 5675 5670 5673 5674 5675 5675 5675 5670 5670 5668 5663 5664 5665 5663 5664 5663 5660 5658 5657 5658 5658 5656 5659 5660 5660 5661 5661 5660 5660 5661 5661 5660 5661 5660 5659 5658